TimeEEST,TemperatureF,Dew PointF,Humidity,Sea Level PressureIn,VisibilityMPH,Wind Direction,Wind SpeedMPH,Gust SpeedMPH,PrecipitationIn,Events,Conditions,WindDirDegrees,DateUTC
12:20 AM,53.6,48.2,82,30.24,-9999.0,North,5.8,-,N/A,,Clear,360,2012-10-18 21:20:00
12:50 AM,53.6,48.2,82,30.24,-9999.0,NNE,8.1,-,N/A,,Clear,30,2012-10-18 21:50:00
1:20 AM,51.8,46.4,82,30.24,-9999.0,Variable,3.5,-,N/A,,Clear,0,2012-10-18 22:20:00
1:50 AM,51.8,48.2,88,30.24,-9999.0,Variable,1.2,-,N/A,,Clear,0,2012-10-18 22:50:00
2:20 AM,50.0,46.4,87,30.24,-9999.0,North,4.6,-,N/A,,Clear,10,2012-10-18 23:20:00
2:50 AM,50.0,46.4,87,30.24,-9999.0,Variable,2.3,-,N/A,,Clear,0,2012-10-18 23:50:00
3:20 AM,50.0,46.4,87,30.24,-9999.0,Variable,1.2,-,N/A,,Clear,0,2012-10-19 00:20:00
3:50 AM,51.8,46.4,82,30.24,-9999.0,NE,2.3,-,N/A,,Clear,40,2012-10-19 00:50:00
4:50 AM,48.2,44.6,87,30.24,-9999.0,NNE,2.3,-,N/A,,Clear,20,2012-10-19 01:50:00
5:20 AM,48.2,44.6,87,30.24,-9999.0,ENE,3.5,-,N/A,,Clear,60,2012-10-19 02:20:00
5:50 AM,46.4,42.8,87,30.24,-9999.0,NNE,6.9,-,N/A,,Clear,20,2012-10-19 02:50:00
6:20 AM,44.6,42.8,93,30.24,-9999.0,NNE,4.6,-,N/A,,Clear,20,2012-10-19 03:20:00
6:50 AM,44.6,41.0,87,30.24,-9999.0,North,3.5,-,N/A,,Clear,10,2012-10-19 03:50:00
7:20 AM,44.6,39.2,81,30.21,-9999.0,NNW,3.5,-,N/A,,Clear,330,2012-10-19 04:20:00
7:50 AM,46.4,41.0,81,30.24,-9999.0,Variable,1.2,-,N/A,,Clear,0,2012-10-19 04:50:00
8:20 AM,48.2,41.0,76,30.24,-9999.0,Variable,3.5,-,N/A,,Clear,0,2012-10-19 05:20:00
8:50 AM,53.6,41.0,62,30.24,-9999.0,Variable,2.3,-,N/A,,Clear,0,2012-10-19 05:50:00
9:00 AM,53,41,53,30.21,12,,2.3,,,,,,2012-10-19 06:00:00
9:20 AM,57.2,42.8,59,30.24,-9999.0,NW,1.2,-,N/A,,Clear,310,2012-10-19 06:20:00
9:50 AM,59.0,42.8,55,30.24,-9999.0,West,3.5,-,N/A,,Clear,280,2012-10-19 06:50:00
10:20 AM,62.6,46.4,55,30.24,-9999.0,Variable,2.3,-,N/A,,Clear,0,2012-10-19 07:20:00
10:50 AM,64.4,46.4,52,30.24,-9999.0,North,10.4,-,N/A,,Clear,10,2012-10-19 07:50:00
11:20 AM,64.4,44.6,49,30.21,-9999.0,NNE,10.4,-,N/A,,Clear,20,2012-10-19 08:20:00
11:50 AM,66.2,41.0,40,30.21,6.2,North,6.9,-,N/A,,Partly Cloudy,10,2012-10-19 08:50:00
12:20 PM,66.2,41.0,40,30.21,6.2,NNE,10.4,-,N/A,,Partly Cloudy,20,2012-10-19 09:20:00
12:50 PM,68.0,35.6,30,30.21,6.2,NNE,9.2,-,N/A,,Partly Cloudy,30,2012-10-19 09:50:00
1:20 PM,69.8,28.4,21,30.18,6.2,NNE,8.1,-,N/A,,Partly Cloudy,30,2012-10-19 10:20:00
1:50 PM,69.8,30.2,23,30.18,6.2,ENE,6.9,-,N/A,,Partly Cloudy,60,2012-10-19 10:50:00
2:20 PM,71.6,28.4,20,30.18,6.2,NE,5.8,-,N/A,,Partly Cloudy,40,2012-10-19 11:20:00
2:50 PM,71.6,30.2,22,30.15,6.2,NNE,6.9,-,N/A,,Partly Cloudy,30,2012-10-19 11:50:00
3:00 PM,71,30,12,30.09,12,NNE,6.9,,,,Scattered Clouds,30,2012-10-19 12:00:00
3:20 PM,71.6,32.0,23,30.15,6.2,NE,6.9,-,N/A,,Partly Cloudy,50,2012-10-19 12:20:00
3:50 PM,71.6,32.0,23,30.15,6.2,NNE,6.9,-,N/A,,Partly Cloudy,30,2012-10-19 12:50:00
4:20 PM,71.6,32.0,23,30.15,6.2,NE,5.8,-,N/A,,Partly Cloudy,50,2012-10-19 13:20:00
4:50 PM,71.6,33.8,25,30.15,6.2,NE,4.6,-,N/A,,Partly Cloudy,40,2012-10-19 13:50:00
5:20 PM,69.8,32.0,25,30.15,6.2,NE,5.8,-,N/A,,Partly Cloudy,50,2012-10-19 14:20:00
5:50 PM,69.8,32.0,25,30.15,6.2,NE,5.8,-,N/A,,Partly Cloudy,50,2012-10-19 14:50:00
6:20 PM,66.2,21.2,18,30.15,6.2,NE,6.9,-,N/A,,Partly Cloudy,40,2012-10-19 15:20:00
6:50 PM,62.6,26.6,26,30.15,6.2,NE,10.4,-,N/A,,Partly Cloudy,40,2012-10-19 15:50:00
7:20 PM,62.6,24.8,24,30.15,6.2,North,10.4,-,N/A,,Partly Cloudy,10,2012-10-19 16:20:00
7:50 PM,59.0,30.2,34,30.15,-9999.0,ENE,4.6,-,N/A,,Clear,60,2012-10-19 16:50:00
8:20 PM,57.2,35.6,44,30.15,6.2,NNE,6.9,-,N/A,,Partly Cloudy,30,2012-10-19 17:20:00
8:50 PM,57.2,26.6,31,30.18,-9999.0,NE,8.1,-,N/A,,Clear,40,2012-10-19 17:50:00
9:00 PM,57,25,17,30.13,12,NE,8.1,,,,Clear,40,2012-10-19 18:00:00
9:20 PM,57.2,24.8,29,30.15,-9999.0,NE,6.9,-,N/A,,Clear,40,2012-10-19 18:20:00
9:50 PM,53.6,28.4,38,30.18,-9999.0,NW,3.5,-,N/A,,Clear,320,2012-10-19 18:50:00
10:20 PM,53.6,26.6,35,30.18,-9999.0,NNW,5.8,-,N/A,,Clear,330,2012-10-19 19:20:00
10:50 PM,53.6,26.6,35,30.18,-9999.0,North,6.9,-,N/A,,Clear,10,2012-10-19 19:50:00
11:20 PM,51.8,32.0,47,30.15,-9999.0,NE,6.9,-,N/A,,Clear,40,2012-10-19 20:20:00
11:50 PM,50.0,30.2,47,30.15,-9999.0,West,2.3,-,N/A,,Clear,260,2012-10-19 20:50:00